Location: Chuathbaluk
(61.5726°N, 159.2454°W)
Time: 16:45:48
(UTC+00:00)

NOAA 15 - Pass Details

Date: 25 January 2021
Orbit: 798 x 812 km, 98.7° (Epoch: 05 March)

Event Time Altitude Azimuth Distance (km) Brightness Sun altitude
Rises 04:00:54 0° 139° (SE) 3,310 7.6 -11.0°
Reaches altitude 10° 04:03:16 10° 135° (SE) 2,385 6.8 -11.3°
Maximum altitude 04:08:22 53° 60° (ENE) 996 4.7 -11.8°
Drops below altitude 10° 04:13:31 10° 345° (NNW) 2,407 7.1 -12.4°
Sets 04:15:55 0° 341° (NNW) 3,344 7.9 -12.7°
